Regional Weather Roundup
Issued by NWS Cleveland, OH

Home | Current Version | Previous Version | Graphics & Text | Print | Product List | Glossary On
Versions: 1 2 3 4 5 6 7 8 9 10 11 12 13 14 15 16 17 18 19 20 21 22 23 24 25 26 27 28 29 30 31 32 33 34 35 36 37 38 39 40 41 42 43 44 45 46 47 48 49 50
000
ASUS41 KCLE 280702
RWRCLE
OHIO REGIONAL WEATHER ROUNDUP
NATIONAL WEATHER SERVICE CLEVELAND, OH
300 AM EDT FRI APR 28 2017

NOTE: "FAIR" INDICATES FEW OR NO CLOUDS BELOW 12,000 FEET WITH NO
SIGNIFICANT WEATHER AND/OR OBSTRUCTIONS TO VISIBILITY.

OHZ001>008-015>018-024>027-034-035-043-044-280800-
   NORTHWEST OHIO

CITY           SKY/WX    TMP DP  RH WIND       PRES   REMARKS
DEFIANCE       CLOUDY    47  36  65 W8        29.92S
FINDLAY        CLEAR     46  40  79 W7        29.90S
TOLEDO EXPRESS CLOUDY    49  39  68 W16       29.90R
TOLEDO EXEC    CLOUDY    51  41  68 W22       29.90S
LIMA           CLEAR     47  43  86 W9        29.92R
$$

OHZ009>014-019>023-028>033-038-089-280800-
   NORTHEAST OHIO

CITY           SKY/WX    TMP DP  RH WIND       PRES   REMARKS
CLE-HOPKINS    PTCLDY    50  41  71 SW6       29.95R
CLE-LAKEFRONT  MOCLDY    50  42  74 SW12      29.92R
CUY CO. ARPT   NOT AVBL
LORAIN-ELYRIA  CLEAR     44  38  79 SW7       29.94R
ASHTABULA      CLEAR     46  44  93 SW3       29.93R
AKRON-CANTON   CLEAR     49  41  74 W5        29.94R
WOOSTER        CLEAR     42  40  92 CALM      29.95R
MANSFIELD      CLEAR     46  43  89 W3        29.93R
YOUNGSTOWN     PTCLDY    48  44  86 W5        29.93R
$$

OHZ042-051>053-060>062-070>072-077>081-280800-
  SOUTHWEST OHIO

CITY           SKY/WX    TMP DP  RH WIND       PRES   REMARKS
CINC-COVINGTON PTCLDY    49  45  86 NW5       29.94R
CINC-LUNKEN    CLEAR     47  47 100 CALM      29.96R FOG
HAMILTON       CLEAR     44  43  96 CALM      29.96R
DAYTON         PTCLDY    47  43  86 W8        29.95R
WRIGHT-PAT AFB PTCLDY    45  43  92 SW3       29.94R
DAYTON GENERAL PTCLDY    50  44  80 W3        29.94R
WILMINGTON     PTCLDY    47  45  93 CALM      29.94R
$$

OHZ036-037-039>041-045>050-054>059-063>069-073>076-082>088-280800-
  CENTRAL AND SOUTHEAST OHIO

CITY           SKY/WX    TMP DP  RH WIND       PRES   REMARKS
COLUMBUS       PTCLDY    49  46  90 CALM      29.95R
OSU AIRPORT    CLEAR     49  44  83 CALM      29.94R
BOLTON FIELD   CLEAR     44  43  97 CALM      29.95R
RICKENBACK AFB CLEAR     48  45  89 CALM      29.94S
NEWARK         CLEAR     45  42  89 W3        29.94R
MARION         CLEAR     41  39  93 CALM      29.94R
LANCASTER      CLEAR     47  44  90 CALM      29.94R
ZANESVILLE     CLEAR     49  44  83 CALM      29.94R
NEW PHILLY     NOT AVBL
$$




USA.gov is the U.S. government's official web portal to all federal, state and local government web resources and services.